[[{"header":{"parameterUnit":"m.s-1","parameterCategory":1,"la1":30.2991,"la2":30.254,"lo1":-89.0895,"lo2":-89.0444,"dy":0.0017,"dx":0.0017,"nx":28,"ny":28,"refTime":"2024-07-24T09:00:00:Z","depth":0,"parameterNumber":2,"parameterNumberName":"U-component_of_WINDS"},"data":[0,0,0,0,0,0,0,0,0,0,0,0,0,0,0,0,0,0,0,0,0,0,0,0,0,0,0,0,0,0,0,0,0,0,0,0,0,0,0,0,0,0,0,0,0,0,0,0,0,0,0,0,0,0,0,0,0,0,1.0671,1.0672,0,1.0771,1.0773,1.0774,1.0814,1.0814,1.0813,1.0813,1.0918,1.0921,1.0924,0,0,0,0,0,0,0,0,0,0,0,0,0,1.0515,1.0518,1.0671,1.0672,1.0673,1.0771,1.0773,1.0774,1.0814,1.0814,1.0813,1.0813,1.0917,1.0921,1.0924,0,0,0,0,0,0,0,0,0,0,0,0,0,1.0596,1.0519,1.0671,1.0705,1.0709,1.0771,1.0773,1.0774,1.0814,1.0814,1.0813,1.0813,1.0916,1.092,1.0925,1.096,0,0,1.0939,1.0941,0,0,0,0,0,0,0,0,1.0591,1.0602,1.0699,1.0703,1.0708,1.078,1.0756,1.0837,1.0814,1.0774,1.0813,1.0813,1.0872,1.088,1.09,1.0965,1.097,1.0939,1.0942,1.0944,1.0945,0,0,0,0,0,0,0,1.0586,1.0598,1.0711,1.07,1.0706,1.0716,1.0727,1.0772,1.0824,1.0778,1.0781,1.0792,1.0875,1.0896,1.0903,1.0971,1.0939,1.0943,1.0946,1.0947,1.1071,1.1071,0,0,0,0,0,0,1.0574,1.0593,1.0708,1.0714,1.0647,1.0719,1.0732,1.0757,1.0824,1.0834,1.0792,1.0794,1.0888,1.0898,1.0907,1.0953,1.0944,1.0948,1.0951,1.107,1.1071,1.1071,0,0,0,0,0,0,1.0571,1.0584,1.0704,1.0654,1.067,1.0722,1.075,1.0759,1.078,1.0835,1.0845,1.0804,1.0888,1.09,1.0947,1.0957,1.095,1.0954,1.1069,1.107,1.1071,1.1045,0,0,0,0,0,0,1.0566,1.0583,1.0596,1.0654,1.0673,1.0741,1.0751,1.0761,1.0788,1.079,1.0848,1.0858,1.0889,1.094,1.0951,1.0963,1.0958,1.1069,1.107,1.1071,1.1046,1.1045,1.1045,0,0,0,0,0,1.056,1.0586,1.0597,1.0611,1.0691,1.0742,1.0752,1.0787,1.0788,1.0803,1.0838,1.0856,1.0954,1.0944,1.0957,1.0971,1.1068,1.107,1.1071,1.1046,1.1045,1.1045,0,0,0,0,0,0,1.0528,1.0594,1.0607,1.0652,1.0691,1.0748,1.0768,1.0785,1.0825,1.0826,1.0868,1.0881,1.0924,1.0952,1.094,1.1009,1.1013,1.1016,1.0989,1.0989,1.0989,1.0981,1.0961,0,0,0,0,0,1.0526,1.0562,1.0617,1.0651,1.067,1.0715,1.0739,1.0762,1.0804,1.0821,1.086,1.0901,1.0941,1.0967,1.1007,1.105,1.1063,1.1066,1.1065,1.1065,1.1068,1.1093,1.1095,1.1075,1.1075,1.1075,0,0,1.0523,1.0563,1.0583,1.0646,1.0679,1.0715,1.0729,1.0766,1.0794,1.0827,1.0873,1.0903,1.0951,1.0996,1.1018,1.1021,1.1076,1.1067,1.1066,1.1069,1.1094,1.1096,1.1098,1.1076,1.1076,1.1076,0,0,1.0535,1.0569,1.0601,1.0633,1.0683,1.0712,1.072,1.0775,1.0796,1.0842,1.0868,1.0901,1.0969,1.1003,1.1029,1.1053,1.1071,1.1065,1.1063,1.1087,1.1089,1.109,1.1099,1.1102,1.1068,1.1068,1.1067,0,1.0525,1.0579,1.0615,1.0651,1.0678,1.0709,1.0742,1.0772,1.0832,1.085,1.0853,1.0939,1.0974,1.1027,1.1032,1.1052,1.1063,1.1059,1.1086,1.1088,1.109,1.1098,1.1102,1.1066,1.1067,1.1067,1.1067,0,1.0564,1.0602,1.0621,1.0678,1.0707,1.0741,1.0783,1.0808,1.0828,1.0858,1.0905,1.0948,1.0997,1.1011,1.1032,1.1067,1.1068,1.1077,1.1082,1.109,1.1099,1.1102,1.1065,1.1065,1.1066,1.1066,0,0,1.0559,1.0634,1.0641,1.0667,1.0724,1.0754,1.0789,1.0837,1.0858,1.0898,1.0929,1.0986,1.0995,1.1025,1.1049,1.107,1.1087,1.1078,1.1079,1.1078,1.1128,1.112,1.1124,1.1099,1.11,1.11,1.1124,0,1.0579,1.0644,1.0676,1.0727,1.0762,1.0792,1.0823,1.0862,1.089,1.0925,1.0957,1.0996,1.1005,1.1023,1.1045,1.108,1.1097,1.1079,1.1129,1.113,1.1116,1.1129,1.1121,1.1141,1.1128,1.1128,1.1129,0,1.0611,1.065,1.0704,1.0756,1.0772,1.0799,1.0845,1.0878,1.0922,1.0941,1.0973,1.0998,1.1037,1.1038,1.1093,1.1079,1.1102,1.1122,1.1124,1.113,1.113,1.1135,1.1149,1.1152,1.1135,1.1134,1.1134,0,1.0602,1.0668,1.0709,1.073,1.0792,1.0811,1.0838,1.0881,1.0907,1.0948,1.0965,1.101,1.1034,1.1068,1.1104,1.1101,1.1155,1.1159,1.1173,1.1172,1.1183,1.1182,1.12,1.1197,1.1197,1.1197,1.1197,0,1.0621,1.0653,1.0706,1.0731,1.0768,1.0805,1.0841,1.087,1.0908,1.094,1.0969,1.0998,1.1043,1.1078,1.1106,1.1147,1.1158,1.1175,1.1182,1.1173,1.1171,1.1188,1.1188,1.1198,1.1198,1.1197,1.1197,0,1.0617,1.0654,1.0701,1.0755,1.077,1.0794,1.0841,1.0867,1.0896,1.0936,1.0948,1.0995,1.1037,1.1076,1.1133,1.1152,1.1194,1.1203,1.1178,1.1182,1.1194,1.1192,1.1225,1.1231,1.1223,1.1223,1.1223,0,1.0627,1.0652,1.0709,1.0732,1.0758,1.0794,1.0821,1.0859,1.0885,1.0937,1.0957,1.1001,1.1039,1.1106,1.1145,1.1189,1.1199,1.1208,1.1206,1.1196,1.12,1.1198,1.1201,1.1207,1.1207,1.1207,1.1207,0,1.064,1.0657,1.0694,1.0737,1.0768,1.0804,1.0841,1.0858,1.0903,1.0932,1.0975,1.1004,1.1062,1.1106,1.1154,1.1182,1.1202,1.1207,1.1213,1.1203,1.1188,1.1196,1.1178,1.1206,1.1206,1.1206,1.1207,1.1207,1.0644,1.0667,1.0711,1.0751,1.0783,1.0816,1.0843,1.0876,1.0912,1.0962,1.0982,1.1026,1.107,1.1136,1.1164,1.12,1.1204,1.1212,1.1214,1.1215,1.1213,1.1182,1.1209,1.1209,1.1209,1.1209,1.1209,0,1.0659,1.0688,1.0724,1.0775,1.0806,1.0821,1.0863,1.0889,1.0927,1.0965,1.1002,1.1051,1.1094,1.1137,1.1182,1.1202,1.1212,1.1213,1.1212,1.1218,1.1207,1.1198,1.1203,1.1203,1.1203,1.1203,1.1203,1.1203,1.067,1.0711,1.0732,1.0789,1.0819,1.0861,1.0884,1.0915,1.0946,1.1,1.1035,1.1062,1.1103,1.1151,1.1191,1.1202,1.1218,1.1215,1.123,1.1219,1.1219,1.1219,1.121,1.1218,1.1218,1.1238,1.1238,1.1238]},{"header":{"parameterUnit":"m.s-1","parameterCategory":1,"la1":30.2991,"la2":30.254,"lo1":-89.0895,"lo2":-89.0444,"dy":0.0017,"dx":0.0017,"nx":28,"ny":28,"refTime":"2024-07-24T09:00:00:Z","depth":0,"parameterNumber":3,"parameterNumberName":"V-component_of_WINDS"},"data":[0,0,0,0,0,0,0,0,0,0,0,0,0,0,0,0,0,0,0,0,0,0,0,0,0,0,0,0,0,0,0,0,0,0,0,0,0,0,0,0,0,0,0,0,0,0,0,0,0,0,0,0,0,0,0,0,0,0,1.8676,1.8676,0,1.8663,1.8663,1.8663,1.8695,1.8696,1.8697,1.8698,1.8681,1.8679,1.8678,0,0,0,0,0,0,0,0,0,0,0,0,0,1.8724,1.8723,1.8676,1.8676,1.8676,1.8663,1.8663,1.8663,1.8695,1.8696,1.8697,1.8699,1.8681,1.868,1.8678,0,0,0,0,0,0,0,0,0,0,0,0,0,1.8706,1.8723,1.8676,1.869,1.8692,1.8663,1.8663,1.8663,1.8695,1.8696,1.8698,1.8699,1.8682,1.868,1.8678,1.8634,0,0,1.8671,1.867,0,0,0,0,0,0,0,0,1.8707,1.8705,1.8689,1.8689,1.8691,1.8682,1.8674,1.8653,1.8694,1.8693,1.8698,1.87,1.868,1.8678,1.8672,1.8633,1.8632,1.8671,1.867,1.8669,1.8668,0,0,0,0,0,0,0,1.8709,1.8705,1.8671,1.8688,1.869,1.8696,1.8695,1.867,1.8678,1.8694,1.8696,1.8694,1.8681,1.8674,1.8672,1.8632,1.8671,1.8669,1.8668,1.8667,1.8553,1.8551,0,0,0,0,0,0,1.8709,1.8706,1.8671,1.8671,1.8703,1.8694,1.8693,1.8683,1.8678,1.8679,1.8693,1.8696,1.8677,1.8674,1.8671,1.8618,1.8669,1.8667,1.8665,1.8555,1.8553,1.8551,0,0,0,0,0,0,1.871,1.8705,1.8672,1.8689,1.8685,1.8691,1.868,1.8682,1.8676,1.8678,1.8679,1.8685,1.8678,1.8674,1.8642,1.8618,1.8666,1.8664,1.8557,1.8554,1.8552,1.8512,0,0,0,0,0,0,1.8711,1.8705,1.869,1.8688,1.8684,1.8645,1.8679,1.8681,1.8672,1.8676,1.8671,1.8671,1.8679,1.8645,1.864,1.8616,1.8662,1.8559,1.8556,1.8553,1.8515,1.8508,1.8502,0,0,0,0,0,1.8712,1.8679,1.8689,1.8685,1.8665,1.8643,1.8641,1.8651,1.867,1.8654,1.8655,1.8671,1.8621,1.8642,1.8636,1.8611,1.8561,1.8557,1.8553,1.8518,1.8509,1.8502,0,0,0,0,0,0,1.8676,1.8679,1.869,1.8656,1.8649,1.8649,1.8629,1.8642,1.8629,1.8633,1.8645,1.8644,1.8609,1.8607,1.863,1.8567,1.8594,1.8589,1.8569,1.8561,1.8555,1.8555,1.866,0,0,0,0,0,1.8664,1.8648,1.865,1.8619,1.8615,1.8622,1.8613,1.8622,1.8615,1.8612,1.8611,1.8603,1.8585,1.8573,1.8557,1.8515,1.8513,1.8494,1.8488,1.8482,1.8477,1.8453,1.8444,1.8538,1.8538,1.8538,0,0,1.8639,1.8639,1.8627,1.8612,1.8608,1.8589,1.862,1.8599,1.8584,1.8609,1.8579,1.8577,1.8568,1.8531,1.8514,1.8528,1.8451,1.8477,1.8473,1.8471,1.8448,1.8439,1.8431,1.8535,1.8536,1.8536,0,0,1.8584,1.8582,1.8556,1.8551,1.8545,1.8549,1.8543,1.854,1.854,1.8511,1.8528,1.851,1.848,1.8472,1.8465,1.8404,1.8418,1.8399,1.8363,1.8339,1.8332,1.8325,1.8302,1.8294,1.8394,1.8394,1.8394,0,1.8553,1.8526,1.854,1.8517,1.8509,1.8531,1.8503,1.8497,1.8485,1.8478,1.8494,1.8456,1.8451,1.8411,1.8397,1.839,1.8381,1.8399,1.8332,1.8326,1.832,1.8298,1.8289,1.8391,1.8392,1.8392,1.8392,0,1.8488,1.8469,1.8448,1.8437,1.8426,1.84,1.8408,1.8396,1.8405,1.8407,1.8375,1.8371,1.8353,1.8345,1.8353,1.8305,1.8313,1.833,1.8358,1.8308,1.8288,1.8279,1.8388,1.8389,1.8389,1.839,0,0,1.8409,1.8406,1.8398,1.8392,1.8386,1.8371,1.8345,1.8329,1.8317,1.8308,1.8285,1.8259,1.8274,1.8265,1.8273,1.8252,1.8202,1.8271,1.8271,1.8257,1.8146,1.8133,1.8123,1.8211,1.821,1.8209,1.8146,0,1.8353,1.8311,1.8322,1.8279,1.826,1.8281,1.8258,1.8251,1.8252,1.8235,1.8236,1.8216,1.8238,1.8233,1.8213,1.8212,1.818,1.8217,1.8189,1.8187,1.8189,1.8113,1.8099,1.804,1.8139,1.8137,1.8136,0,1.8283,1.8271,1.8227,1.8223,1.8215,1.8195,1.818,1.8164,1.8156,1.8158,1.8147,1.8158,1.8131,1.8159,1.812,1.8145,1.8134,1.8132,1.813,1.8127,1.8158,1.8106,1.8022,1.8013,1.8124,1.8125,1.8126,0,1.8228,1.8202,1.8171,1.8166,1.8161,1.8146,1.8143,1.8136,1.8125,1.8111,1.8104,1.8087,1.8077,1.8063,1.8068,1.8089,1.8027,1.8057,1.8027,1.8026,1.8012,1.8013,1.7924,1.8007,1.8007,1.8007,1.8007,0,1.8164,1.8135,1.8147,1.8128,1.8096,1.8107,1.8075,1.8074,1.8067,1.8047,1.8063,1.8044,1.8053,1.8033,1.8037,1.8003,1.7999,1.7998,1.7999,1.7996,1.7996,1.7988,1.7992,1.8005,1.8005,1.8006,1.8006,0,1.8097,1.8104,1.8072,1.8069,1.8068,1.8044,1.8041,1.8023,1.8025,1.7999,1.7993,1.7996,1.7973,1.7978,1.7953,1.7955,1.7912,1.7919,1.7915,1.7917,1.7886,1.7888,1.7788,1.7775,1.7867,1.7866,1.7865,0,1.8055,1.8034,1.8029,1.8018,1.8013,1.7994,1.7983,1.7993,1.7981,1.7969,1.7951,1.793,1.7914,1.7876,1.7875,1.7855,1.7861,1.7827,1.7858,1.7855,1.7858,1.7859,1.7856,1.7821,1.782,1.7819,1.7818,0,1.798,1.7984,1.7968,1.7953,1.794,1.7928,1.7918,1.7907,1.7915,1.79,1.7878,1.7866,1.784,1.7818,1.78,1.7794,1.7806,1.7808,1.78,1.7796,1.7794,1.7793,1.7897,1.781,1.7811,1.7812,1.7812,1.7812,1.7923,1.7905,1.7898,1.788,1.7873,1.7863,1.7845,1.7845,1.7827,1.7808,1.7814,1.7788,1.7778,1.7754,1.7747,1.7725,1.7738,1.7726,1.7723,1.7719,1.7715,1.7799,1.7722,1.7722,1.7722,1.7723,1.7723,0,1.7847,1.7844,1.7827,1.7812,1.7797,1.7812,1.78,1.7786,1.7764,1.7754,1.7738,1.7711,1.769,1.7686,1.7665,1.7648,1.7653,1.7642,1.7643,1.7641,1.7706,1.7715,1.7639,1.7639,1.7639,1.7639,1.7639,1.7639,1.7806,1.7775,1.7778,1.7742,1.7739,1.7715,1.7707,1.7697,1.7689,1.7659,1.7642,1.764,1.7632,1.761,1.7591,1.759,1.7581,1.7567,1.7568,1.7629,1.7637,1.7645,1.7653,1.7566,1.7565,1.7505,1.7505,1.7505]}]]